DELTA 1 DEB, 12274

Orbit data source: Space-Track

DELTA 1 DEB, 12274 is space debris in SSO originally from a launch on Thu, 29 Jul 1976 UTC launched from the Air Force Western Test Range (AFWTR). Debris objects in space refer to the collection of defunct objects orbiting the Earth. Examples of debris include non-operational satellites, rocket bodies, and fragments generated from explosions, collisions, or faulty payload assembly.

Loading next visibility...
Identifier
12274, 1976-077DF
Orbit
SSO
Country
Flag of USUS
Related business
Manufacturer
Unknown
Mission
Spacecraft
Bus & Motor
Unknown
Mass
Unknown
Launch date (UTC)
1976-07-29 (49 years ago)
Launch vehicle
Unknown
Launch site
Air Force Western Test Range (AFWTR)
Object type
Payload
Rocket body
Debris
Shape & HBR
Unknown shape, 0.1 m
Radar Cross Section
Small (<0.1 m²)

Expand to show TLE details & history
Last TLE update: 1 day ago

TLE from 1 day ago
0 DELTA 1 DEB
1 12274U 76077DF  25301.17489059 -.00000004  00000-0  36378-3 0  9992
2 12274 102.3545 264.2420 0106374  66.0259 308.8726 12.22282747995607
Epoch: 2025-10-28T04:11Z
TLE epoch observation values (Epoch: 2025-10-28T04:11:50.546Z)
Latitude
13.5848°
Longitude
161.49609°
Altitude
1,531.796 km
Speed
7.125 km/s
True Right ascension
17h 24m 53s
True Declination
13° 30' 51"
Sunlit
Object was in daylight at epoch
Visualization orbit readout
Latitude
Unknown
Longitude
Unknown
Altitude
Unknown
Speed
Unknown
Apparent Right ascension
Unknown
Apparent Declination
Unknown
Sunlit
N/A
Visualization observer readout
Local Sidereal Time
08:06:18
Azimuth
Unknown
Elevation
Unknown
Doppler factor
Unknown
Orbital elements
Apogee altitude
1,664.889 km
Perigee altitude
1,495.577 km
Semi-major axis
7,958.37 km
Eccentricity
0.01064
Inclination
102.3545°
RAAN
264.242°
Arg. of periapsis
66.0259°
True anomaly
307.91565°
Mean anomaly
308.8726°
Eccentric anomaly
308.39492°
Mean motion
3.05708 °/min
Orbital period
117.76 mins
BSTAR
0.00036378
Loading maneuver chart data...
Computing Atmospheric mass density...
Loading historical data...
Loading historical data...
Loading historical data...
Loading historical data...
Loading historical data...
Loading historical data...
Loading historical data...

Documentation

Showing up to 5 results
|